Location: Burbank
(38.7788°N, 114.0429°W)
Time: 23:17:00
(UTC+00:00)

S-56A Canister/Altair - Pass Details

Date: 16 May 2026
Orbit: 633 x 2484 km, 38.9° (Epoch: 1 June)

Event Time Altitude Azimuth Distance (km) Brightness Sun altitude
Rises 01:40:49 0° 204° (SSW) 3,556 11.0 10.3°
Reaches altitude 10° 01:44:47 10° 180° (S) 2,335 9.9 9.5°
Maximum altitude 01:47:33 14° 148° (SSE) 1,899 9.2 9.0°
Drops below altitude 10° 01:50:04 10° 115° (ESE) 2,080 9.2 8.5°
Sets 01:53:14 0° 89° (E) 2,922 9.9 8.0°
